Time,TemperatureF,DewpointF,PressureIn,WindDirection,WindDirectionDegrees,WindSpeedMPH,WindSpeedGustMPH,Humidity,HourlyPrecipIn,Conditions,Clouds,dailyrainin,SoftwareType,DateUTC
2013-03-14 00:12:00,38.0,20.0,30.17,North,11,0.0,-999.0,48,-99.99,,,-99.99,,2013-03-14 04:12:00,
2013-03-14 00:22:00,38.0,21.0,30.17,NW,313,2.0,-999.0,49,-99.99,,,-99.99,,2013-03-14 04:22:00,
2013-03-14 00:32:00,38.0,21.0,30.17,North,5,2.0,-999.0,49,-99.99,,,-99.99,,2013-03-14 04:32:00,
2013-03-14 00:42:00,38.0,21.0,30.17,North,5,2.0,-999.0,49,-99.99,,,-99.99,,2013-03-14 04:42:00,
2013-03-14 00:53:00,37.0,20.0,30.17,North,9,3.0,-999.0,49,-99.99,,,-99.99,,2013-03-14 04:53:00,
2013-03-14 01:02:00,37.0,20.0,30.17,NNW,343,1.0,-999.0,50,-99.99,,,-99.99,,2013-03-14 05:02:00,
2013-03-14 01:12:00,37.0,20.0,30.17,NNW,343,1.0,-999.0,50,-99.99,,,-99.99,,2013-03-14 05:12:00,
2013-03-14 01:22:00,36.0,19.0,30.17,North,355,1.0,-999.0,50,-99.99,,,-99.99,,2013-03-14 05:22:00,
2013-03-14 01:33:00,36.0,20.0,30.17,NW,319,1.0,-999.0,52,-99.99,,,-99.99,,2013-03-14 05:33:00,
2013-03-14 01:42:00,36.0,20.0,30.17,NW,319,1.0,-999.0,52,-99.99,,,-99.99,,2013-03-14 05:42:00,
2013-03-14 01:53:00,36.0,19.0,30.17,NW,313,4.0,-999.0,50,-99.99,,,-99.99,,2013-03-14 05:53:00,
2013-03-14 02:02:00,36.0,19.0,30.17,NNW,341,4.0,-999.0,50,-99.99,,,-99.99,,2013-03-14 06:02:00,
2013-03-14 02:12:00,36.0,19.0,30.17,NNW,341,4.0,-999.0,50,-99.99,,,-99.99,,2013-03-14 06:12:00,
2013-03-14 02:22:00,36.0,18.0,30.17,NNW,331,4.0,-999.0,48,-99.99,,,-99.99,,2013-03-14 06:22:00,
2013-03-14 02:33:00,36.0,19.0,30.18,NW,319,3.0,-999.0,49,-99.99,,,-99.99,,2013-03-14 06:33:00,
2013-03-14 02:42:00,36.0,19.0,30.18,NW,319,3.0,-999.0,49,-99.99,,,-99.99,,2013-03-14 06:42:00,
2013-03-14 02:52:00,35.0,17.0,30.18,NNW,336,4.0,-999.0,48,-99.99,,,-99.99,,2013-03-14 06:52:00,
2013-03-14 03:02:00,35.0,18.0,30.19,NW,320,3.0,-999.0,49,-99.99,,,-99.99,,2013-03-14 07:02:00,
2013-03-14 03:12:00,35.0,18.0,30.19,NW,320,3.0,-999.0,49,-99.99,,,-99.99,,2013-03-14 07:12:00,
2013-03-14 03:22:00,34.0,18.0,30.19,North,5,2.0,-999.0,51,-99.99,,,-99.99,,2013-03-14 07:22:00,
2013-03-14 03:32:00,34.0,18.0,30.20,NNW,344,3.0,-999.0,51,-99.99,,,-99.99,,2013-03-14 07:32:00,
2013-03-14 03:43:00,34.0,18.0,30.20,NNW,344,3.0,-999.0,51,-99.99,,,-99.99,,2013-03-14 07:43:00,
2013-03-14 03:52:00,34.0,18.0,30.20,NNW,332,2.0,-999.0,52,-99.99,,,-99.99,,2013-03-14 07:52:00,
2013-03-14 04:02:00,33.0,17.0,30.20,NW,315,1.0,-999.0,52,-99.99,,,-99.99,,2013-03-14 08:02:00,
2013-03-14 04:12:00,33.0,17.0,30.20,NW,315,1.0,-999.0,52,-99.99,,,-99.99,,2013-03-14 08:12:00,
2013-03-14 04:22:00,33.0,17.0,30.21,North,360,2.0,-999.0,52,-99.99,,,-99.99,,2013-03-14 08:22:00,
2013-03-14 04:32:00,33.0,17.0,30.21,North,9,4.0,-999.0,52,-99.99,,,-99.99,,2013-03-14 08:32:00,
2013-03-14 04:42:00,33.0,17.0,30.21,North,9,4.0,-999.0,52,-99.99,,,-99.99,,2013-03-14 08:42:00,
2013-03-14 04:52:00,33.0,17.0,30.21,WNW,298,4.0,-999.0,52,-99.99,,,-99.99,,2013-03-14 08:52:00,
2013-03-14 05:02:00,33.0,17.0,30.20,NNW,327,4.0,-999.0,52,-99.99,,,-99.99,,2013-03-14 09:02:00,
2013-03-14 05:12:00,33.0,17.0,30.20,NNW,327,4.0,-999.0,52,-99.99,,,-99.99,,2013-03-14 09:12:00,
2013-03-14 05:22:00,33.0,17.0,30.20,NNW,331,5.0,-999.0,52,-99.99,,,-99.99,,2013-03-14 09:22:00,
2013-03-14 05:32:00,33.0,17.0,30.21,NW,314,5.0,-999.0,52,-99.99,,,-99.99,,2013-03-14 09:32:00,
2013-03-14 05:42:00,33.0,17.0,30.21,NW,314,5.0,-999.0,52,-99.99,,,-99.99,,2013-03-14 09:42:00,
2013-03-14 05:52:00,32.0,16.0,30.22,North,11,4.0,-999.0,52,-99.99,,,-99.99,,2013-03-14 09:52:00,
2013-03-14 06:02:00,32.0,16.0,30.22,WNW,292,4.0,-999.0,52,-99.99,,,-99.99,,2013-03-14 10:02:00,
2013-03-14 06:12:00,32.0,16.0,30.22,WNW,292,4.0,-999.0,52,-99.99,,,-99.99,,2013-03-14 10:12:00,
2013-03-14 06:22:00,32.0,16.0,30.22,NNW,342,6.0,-999.0,51,-99.99,,,-99.99,,2013-03-14 10:22:00,
2013-03-14 06:32:00,32.0,16.0,30.23,North,9,8.0,-999.0,52,-99.99,,,-99.99,,2013-03-14 10:32:00,
2013-03-14 06:42:00,32.0,16.0,30.23,North,9,8.0,-999.0,52,-99.99,,,-99.99,,2013-03-14 10:42:00,
2013-03-14 06:52:00,32.0,16.0,30.24,NNW,336,10.0,-999.0,51,-99.99,,,-99.99,,2013-03-14 10:52:00,
2013-03-14 07:02:00,32.0,16.0,30.25,NW,316,7.0,-999.0,52,-99.99,,,-99.99,,2013-03-14 11:02:00,
2013-03-14 07:12:00,32.0,16.0,30.25,NW,316,7.0,-999.0,52,-99.99,,,-99.99,,2013-03-14 11:12:00,
2013-03-14 07:22:00,32.0,17.0,30.26,North,5,5.0,-999.0,53,-99.99,,,-99.99,,2013-03-14 11:22:00,
2013-03-14 07:33:00,32.0,16.0,30.27,NNE,17,5.0,-999.0,52,-99.99,,,-99.99,,2013-03-14 11:33:00,
2013-03-14 07:42:00,32.0,16.0,30.27,NNE,17,5.0,-999.0,52,-99.99,,,-99.99,,2013-03-14 11:42:00,
2013-03-14 07:53:00,32.0,16.0,30.28,NNW,344,7.0,-999.0,52,-99.99,,,-99.99,,2013-03-14 11:53:00,
2013-03-14 08:02:00,32.0,16.0,30.27,NW,319,13.0,-999.0,51,-99.99,,,-99.99,,2013-03-14 12:02:00,
2013-03-14 08:12:00,32.0,16.0,30.27,NW,319,13.0,-999.0,51,-99.99,,,-99.99,,2013-03-14 12:12:00,
2013-03-14 08:22:00,32.0,16.0,30.28,NW,324,12.0,-999.0,51,-99.99,,,-99.99,,2013-03-14 12:22:00,
2013-03-14 08:33:00,32.0,15.0,30.28,NW,310,11.0,-999.0,50,-99.99,,,-99.99,,2013-03-14 12:33:00,
2013-03-14 08:42:00,32.0,15.0,30.28,NW,310,11.0,-999.0,50,-99.99,,,-99.99,,2013-03-14 12:42:00,
2013-03-14 08:52:00,32.0,15.0,30.28,NNW,336,10.0,-999.0,48,-99.99,,,-99.99,,2013-03-14 12:52:00,
2013-03-14 09:02:00,33.0,15.0,30.29,NW,318,12.0,-999.0,47,-99.99,,,-99.99,,2013-03-14 13:02:00,
2013-03-14 09:13:00,33.0,15.0,30.29,NW,318,12.0,-999.0,47,-99.99,,,-99.99,,2013-03-14 13:13:00,
2013-03-14 09:22:00,33.0,13.0,30.28,NW,304,14.0,-999.0,44,-99.99,,,-99.99,,2013-03-14 13:22:00,
2013-03-14 09:32:00,34.0,13.0,30.28,NNW,331,13.0,-999.0,42,-99.99,,,-99.99,,2013-03-14 13:32:00,
2013-03-14 09:43:00,34.0,13.0,30.28,NNW,331,13.0,-999.0,42,-99.99,,,-99.99,,2013-03-14 13:43:00,
2013-03-14 09:52:00,34.0,13.0,30.28,NNW,331,13.0,-999.0,42,-99.99,,,-99.99,,2013-03-14 13:52:00,
2013-03-14 10:02:00,35.0,13.0,30.29,NNW,332,13.0,-999.0,40,-99.99,,,-99.99,,2013-03-14 14:02:00,
2013-03-14 10:12:00,35.0,13.0,30.29,NNW,332,13.0,-999.0,40,-99.99,,,-99.99,,2013-03-14 14:12:00,
2013-03-14 10:22:00,36.0,13.0,30.30,WNW,299,10.0,-999.0,38,-99.99,,,-99.99,,2013-03-14 14:22:00,
2013-03-14 10:32:00,37.0,14.0,30.29,NW,306,11.0,-999.0,38,-99.99,,,-99.99,,2013-03-14 14:32:00,
2013-03-14 10:42:00,37.0,14.0,30.29,NW,306,11.0,-999.0,38,-99.99,,,-99.99,,2013-03-14 14:42:00,
2013-03-14 10:53:00,38.0,13.0,30.29,NW,306,8.0,-999.0,36,-99.99,,,-99.99,,2013-03-14 14:53:00,
2013-03-14 11:02:00,38.0,13.0,30.30,NW,326,10.0,-999.0,35,-99.99,,,-99.99,,2013-03-14 15:02:00,
2013-03-14 11:12:00,38.0,13.0,30.30,NW,326,10.0,-999.0,35,-99.99,,,-99.99,,2013-03-14 15:12:00,
2013-03-14 11:22:00,39.0,13.0,30.30,NW,315,10.0,-999.0,34,-99.99,,,-99.99,,2013-03-14 15:22:00,
2013-03-14 11:33:00,40.0,14.0,30.30,WNW,302,7.0,-999.0,34,-99.99,,,-99.99,,2013-03-14 15:33:00,
2013-03-14 11:43:00,40.0,14.0,30.30,WNW,302,7.0,-999.0,34,-99.99,,,-99.99,,2013-03-14 15:43:00,
2013-03-14 11:52:00,40.0,13.0,30.30,NW,311,8.0,-999.0,33,-99.99,,,-99.99,,2013-03-14 15:52:00,
2013-03-14 12:03:00,40.0,13.0,30.30,NW,311,8.0,-999.0,33,-99.99,,,-99.99,,2013-03-14 16:03:00,
2013-03-14 12:13:00,40.0,13.0,30.30,NW,311,8.0,-999.0,33,-99.99,,,-99.99,,2013-03-14 16:13:00,
2013-03-14 12:23:00,42.0,14.0,30.30,NW,304,9.0,-999.0,31,-99.99,,,-99.99,,2013-03-14 16:23:00,
2013-03-14 12:32:00,42.0,14.0,30.29,West,268,8.0,-999.0,31,-99.99,,,-99.99,,2013-03-14 16:32:00,
2013-03-14 12:42:00,42.0,14.0,30.29,West,268,8.0,-999.0,31,-99.99,,,-99.99,,2013-03-14 16:42:00,
2013-03-14 12:52:00,44.0,15.0,30.29,NW,310,6.0,-999.0,30,-99.99,,,-99.99,,2013-03-14 16:52:00,
2013-03-14 13:02:00,45.0,14.0,30.29,NW,314,7.0,-999.0,28,-99.99,,,-99.99,,2013-03-14 17:02:00,
2013-03-14 13:13:00,45.0,14.0,30.29,NW,314,7.0,-999.0,28,-99.99,,,-99.99,,2013-03-14 17:13:00,
2013-03-14 13:23:00,46.0,16.0,30.29,North,360,5.0,-999.0,30,-99.99,,,-99.99,,2013-03-14 17:23:00,
2013-03-14 13:33:00,46.0,15.0,30.28,WNW,300,5.0,-999.0,28,-99.99,,,-99.99,,2013-03-14 17:33:00,
2013-03-14 13:42:00,46.0,15.0,30.28,WNW,300,5.0,-999.0,28,-99.99,,,-99.99,,2013-03-14 17:42:00,
2013-03-14 13:53:00,48.0,16.0,30.27,WNW,290,2.0,-999.0,28,-99.99,,,-99.99,,2013-03-14 17:53:00,
2013-03-14 14:03:00,48.0,16.0,30.27,NNW,327,5.0,-999.0,28,-99.99,,,-99.99,,2013-03-14 18:03:00,
2013-03-14 14:12:00,48.0,16.0,30.27,NNW,327,5.0,-999.0,28,-99.99,,,-99.99,,2013-03-14 18:12:00,
2013-03-14 14:23:00,50.0,18.0,30.26,NW,313,3.0,-999.0,28,-99.99,,,-99.99,,2013-03-14 18:23:00,
2013-03-14 14:33:00,51.0,18.0,30.26,SSW,209,5.0,-999.0,27,-99.99,,,-99.99,,2013-03-14 18:33:00,
2013-03-14 14:43:00,51.0,18.0,30.26,SSW,209,5.0,-999.0,27,-99.99,,,-99.99,,2013-03-14 18:43:00,
2013-03-14 14:53:00,52.0,20.0,30.25,SSW,194,4.0,-999.0,28,-99.99,,,-99.99,,2013-03-14 18:53:00,
2013-03-14 15:03:00,50.0,19.0,30.24,SSE,167,3.0,-999.0,29,-99.99,,,-99.99,,2013-03-14 19:03:00,
2013-03-14 15:12:00,50.0,19.0,30.24,SSE,167,3.0,-999.0,29,-99.99,,,-99.99,,2013-03-14 19:12:00,
2013-03-14 15:23:00,51.0,18.0,30.23,WSW,247,1.0,-999.0,27,-99.99,,,-99.99,,2013-03-14 19:23:00,
2013-03-14 15:32:00,51.0,19.0,30.22,NW,317,3.0,-999.0,28,-99.99,,,-99.99,,2013-03-14 19:32:00,
2013-03-14 15:42:00,51.0,19.0,30.22,NW,317,3.0,-999.0,28,-99.99,,,-99.99,,2013-03-14 19:42:00,
2013-03-14 15:52:00,51.0,18.0,30.21,NW,312,2.0,-999.0,27,-99.99,,,-99.99,,2013-03-14 19:52:00,
2013-03-14 16:02:00,52.0,18.0,30.20,NNW,344,2.0,-999.0,26,-99.99,,,-99.99,,2013-03-14 20:02:00,
2013-03-14 16:12:00,52.0,18.0,30.20,NNW,344,2.0,-999.0,26,-99.99,,,-99.99,,2013-03-14 20:12:00,
2013-03-14 16:22:00,51.0,17.0,30.20,SSW,206,4.0,-999.0,26,-99.99,,,-99.99,,2013-03-14 20:22:00,
2013-03-14 16:32:00,52.0,20.0,30.20,NNW,333,1.0,-999.0,28,-99.99,,,-99.99,,2013-03-14 20:32:00,
2013-03-14 16:42:00,52.0,20.0,30.20,NNW,333,1.0,-999.0,28,-99.99,,,-99.99,,2013-03-14 20:42:00,
2013-03-14 16:52:00,52.0,21.0,30.20,SSW,192,1.0,-999.0,29,-99.99,,,-99.99,,2013-03-14 20:52:00,
2013-03-14 17:03:00,52.0,20.0,30.19,South,190,2.0,-999.0,28,-99.99,,,-99.99,,2013-03-14 21:03:00,
2013-03-14 17:13:00,52.0,20.0,30.19,South,190,2.0,-999.0,28,-99.99,,,-99.99,,2013-03-14 21:13:00,
2013-03-14 17:22:00,52.0,20.0,30.19,SSW,202,1.0,-999.0,28,-99.99,,,-99.99,,2013-03-14 21:22:00,
2013-03-14 17:33:00,51.0,21.0,30.19,WNW,292,2.0,-999.0,30,-99.99,,,-99.99,,2013-03-14 21:33:00,
2013-03-14 17:43:00,51.0,21.0,30.19,WNW,292,2.0,-999.0,30,-99.99,,,-99.99,,2013-03-14 21:43:00,
2013-03-14 17:53:00,51.0,21.0,30.18,SW,223,3.0,-999.0,31,-99.99,,,-99.99,,2013-03-14 21:53:00,
2013-03-14 18:03:00,51.0,21.0,30.18,North,355,2.0,-999.0,30,-99.99,,,-99.99,,2013-03-14 22:03:00,
2013-03-14 18:13:00,51.0,21.0,30.18,North,355,2.0,-999.0,30,-99.99,,,-99.99,,2013-03-14 22:13:00,
2013-03-14 18:23:00,52.0,20.0,30.18,South,175,2.0,-999.0,28,-99.99,,,-99.99,,2013-03-14 22:23:00,
2013-03-14 18:33:00,52.0,20.0,30.17,South,187,3.0,-999.0,28,-99.99,,,-99.99,,2013-03-14 22:33:00,
2013-03-14 18:42:00,52.0,20.0,30.17,South,187,3.0,-999.0,28,-99.99,,,-99.99,,2013-03-14 22:42:00,
2013-03-14 18:53:00,52.0,20.0,30.17,SE,145,3.0,-999.0,28,-99.99,,,-99.99,,2013-03-14 22:53:00,
2013-03-14 19:03:00,51.0,20.0,30.17,SSW,211,1.0,-999.0,29,-99.99,,,-99.99,,2013-03-14 23:03:00,
2013-03-14 19:12:00,51.0,20.0,30.17,SSW,211,1.0,-999.0,29,-99.99,,,-99.99,,2013-03-14 23:12:00,
2013-03-14 19:23:00,51.0,20.0,30.17,SSW,211,2.0,-999.0,29,-99.99,,,-99.99,,2013-03-14 23:23:00,
2013-03-14 19:33:00,51.0,21.0,30.17,South,178,1.0,-999.0,30,-99.99,,,-99.99,,2013-03-14 23:33:00,
2013-03-14 19:42:00,51.0,21.0,30.17,South,178,1.0,-999.0,30,-99.99,,,-99.99,,2013-03-14 23:42:00,
2013-03-14 19:53:00,50.0,20.0,30.17,SSE,163,1.0,-999.0,30,-99.99,,,-99.99,,2013-03-14 23:53:00,
2013-03-14 20:02:00,49.0,20.0,30.17,South,177,0.0,-999.0,32,-99.99,,,-99.99,,2013-03-15 00:02:00,
2013-03-14 20:12:00,49.0,21.0,30.16,South,177,0.0,-999.0,33,-99.99,,,-99.99,,2013-03-15 00:12:00,
2013-03-14 20:23:00,49.0,21.0,30.16,South,177,0.0,-999.0,33,-99.99,,,-99.99,,2013-03-15 00:23:00,
2013-03-14 20:32:00,48.0,20.0,30.16,South,177,0.0,-999.0,33,-99.99,,,-99.99,,2013-03-15 00:32:00,
2013-03-14 20:42:00,48.0,20.0,30.16,South,177,0.0,-999.0,33,-99.99,,,-99.99,,2013-03-15 00:42:00,
2013-03-14 20:52:00,48.0,22.0,30.16,South,177,0.0,-999.0,35,-99.99,,,-99.99,,2013-03-15 00:52:00,
2013-03-14 21:02:00,46.0,23.0,30.16,South,177,0.0,-999.0,40,-99.99,,,-99.99,,2013-03-15 01:02:00,
2013-03-14 21:12:00,46.0,23.0,30.16,South,177,0.0,-999.0,40,-99.99,,,-99.99,,2013-03-15 01:12:00,
2013-03-14 21:22:00,45.0,22.0,30.17,South,177,0.0,-999.0,40,-99.99,,,-99.99,,2013-03-15 01:22:00,
2013-03-14 21:32:00,44.0,22.0,30.16,South,177,0.0,-999.0,42,-99.99,,,-99.99,,2013-03-15 01:32:00,
2013-03-14 21:42:00,44.0,22.0,30.16,South,177,0.0,-999.0,42,-99.99,,,-99.99,,2013-03-15 01:42:00,
2013-03-14 21:52:00,43.0,23.0,30.17,SSE,157,0.0,-999.0,45,-99.99,,,-99.99,,2013-03-15 01:52:00,
2013-03-14 22:03:00,44.0,23.0,30.17,ESE,121,0.0,-999.0,43,-99.99,,,-99.99,,2013-03-15 02:03:00,
2013-03-14 22:12:00,44.0,23.0,30.17,ESE,121,0.0,-999.0,43,-99.99,,,-99.99,,2013-03-15 02:12:00,
2013-03-14 22:22:00,44.0,22.0,30.18,ESE,122,0.0,-999.0,42,-99.99,,,-99.99,,2013-03-15 02:22:00,
2013-03-14 22:32:00,44.0,21.0,30.19,NNW,336,1.0,-999.0,39,-99.99,,,-99.99,,2013-03-15 02:32:00,
2013-03-14 22:42:00,44.0,21.0,30.19,NNW,336,1.0,-999.0,39,-99.99,,,-99.99,,2013-03-15 02:42:00,
2013-03-14 22:52:00,44.0,21.0,30.20,NNW,337,2.0,-999.0,39,-99.99,,,-99.99,,2013-03-15 02:52:00,
2013-03-14 23:02:00,44.0,23.0,30.20,NNW,336,2.0,-999.0,44,-99.99,,,-99.99,,2013-03-15 03:02:00,
2013-03-14 23:12:00,44.0,23.0,30.20,NNW,336,2.0,-999.0,44,-99.99,,,-99.99,,2013-03-15 03:12:00,
2013-03-14 23:22:00,42.0,22.0,30.20,NNW,337,2.0,-999.0,45,-99.99,,,-99.99,,2013-03-15 03:22:00,
2013-03-14 23:33:00,42.0,19.0,30.19,NNW,333,2.0,-999.0,40,-99.99,,,-99.99,,2013-03-15 03:33:00,
2013-03-14 23:43:00,42.0,19.0,30.19,NNW,333,2.0,-999.0,40,-99.99,,,-99.99,,2013-03-15 03:43:00,
2013-03-14 23:52:00,43.0,19.0,30.19,NNW,334,3.0,-999.0,37,-99.99,,,-99.99,,2013-03-15 03:52:00,